Change the Weather History Date:

Saturday, November 5, 2011

  Actual Average Record
Temperature  
Mean Temperature 37 °F -  
Max Temperature 42 °F 65 °F 77 °F (2012)
Min Temperature 32 °F 38 °F 26 °F (2013)
Degree Days  
Heating Degree Days 28    
Moisture  
Dew Point 30 °F    
Average Humidity 79    
Maximum Humidity 100    
Minimum Humidity 53    
Precipitation  
Precipitation 0.00 in - - ()
Sea Level Pressure  
Sea Level Pressure 29.95 in    
Wind  
Wind Speed 14 mph (NW)    
Max Wind Speed 21 mph    
Max Gust Speed 28 mph    
Visibility 8 miles    
Events      
Averages and records for this station are not official NWS values.
T = Trace of Precipitation, MM = Missing Value Source: NWS Daily Summary

Daily Weather History Graph

Daily Weather History Graph

Search for Another Location

Airport or City:

Trip Planner

Search our weather history database for the weather conditions in past years. The results will help you decide how hot, cold, wet, or windy it might be!

Date:

Astronomy

Nov. 05, 2011 Rise Set
Actual Time 7:18 AM PDT 5:55 PM PDT
Civil Twilight 6:52 AM PDT 6:22 PM PDT
Nautical Twilight 6:22 AM PDT 6:52 PM PDT
Astronomical Twilight 5:52 AM PDT 7:21 PM PDT
Moon 3:07 PM PDT 2:42 AM PDT
Length of Visible Light 11h 29m
Length of Day
10h 37m
Waxing Gibbous, 79% of the Moon is Illuminated
Nov 5
Waxing Gibbous
Nov 10
Full
Nov 18
Last Quarter
Nov 24
New
Dec 2
First Quarter

Hourly Weather History & Observations

Time (PDT) Temp. Windchill Dew Point Humidity Pressure Visibility Wind Dir Wind Speed Gust Speed Precip Events Conditions
12:35 AM 35.6 °F 26.2 °F 32.0 °F 87% 29.87 in 9.0 mi WNW 15.0 mph - N/A   Partly Cloudy
12:55 AM 35.6 °F 27.1 °F 32.0 °F 87% 29.87 in 9.0 mi WNW 12.7 mph 19.6 mph N/A   Scattered Clouds
1:15 AM 35.6 °F 26.6 °F 32.0 °F 87% 29.87 in 9.0 mi WNW 13.8 mph 20.7 mph N/A   Scattered Clouds
1:35 AM 35.6 °F 26.6 °F 32.0 °F 87% 29.87 in 9.0 mi WNW 13.8 mph - N/A   Scattered Clouds
1:55 AM 35.6 °F 27.1 °F 32.0 °F 87% 29.87 in 8.0 mi WNW 12.7 mph - N/A   Partly Cloudy
2:15 AM 33.8 °F 25.3 °F 32.0 °F 93% 29.87 in 6.0 mi WNW 11.5 mph - N/A   Clear
2:35 AM 33.8 °F 25.3 °F 32.0 °F 93% 29.87 in 5.0 mi NW 11.5 mph - N/A   Partly Cloudy
2:55 AM 33.8 °F 25.3 °F 32.0 °F 93% 29.88 in 6.0 mi NW 11.5 mph - N/A   Partly Cloudy
3:15 AM 33.8 °F 25.3 °F 32.0 °F 93% 29.87 in 7.0 mi WNW 11.5 mph - N/A   Partly Cloudy
3:35 AM 33.8 °F 25.3 °F 32.0 °F 93% 29.87 in 7.0 mi WNW 11.5 mph 16.1 mph N/A   Partly Cloudy
3:55 AM 35.6 °F 26.6 °F 32.0 °F 87% 29.88 in 8.0 mi WNW 13.8 mph 19.6 mph N/A   Clear
4:35 AM 33.8 °F 25.3 °F 32.0 °F 93% 29.88 in 5.0 mi NW 11.5 mph - N/A   Clear
4:55 AM 33.8 °F 25.8 °F 32.0 °F 93% 29.89 in 4.0 mi WNW 10.4 mph - N/A   Clear
5:35 AM 32.0 °F 22.5 °F 32.0 °F 100% 29.89 in 3.0 mi WNW 12.7 mph 17.3 mph N/A   Partly Cloudy
5:55 AM 32.0 °F 22.1 °F 32.0 °F 100% 29.90 in 3.0 mi NW 13.8 mph 20.7 mph N/A   Scattered Clouds
6:15 AM 32.0 °F 20.8 °F 32.0 °F 100% 29.91 in 4.0 mi WNW 17.3 mph - N/A   Scattered Clouds
6:35 AM 32.0 °F 22.1 °F 32.0 °F 100% 29.91 in 4.0 mi WNW 13.8 mph 25.3 mph N/A   Scattered Clouds
6:55 AM 32.0 °F 20.8 °F 32.0 °F 100% 29.92 in 6.0 mi WNW 17.3 mph 23.0 mph N/A   Partly Cloudy
7:15 AM 32.0 °F 20.5 °F 32.0 °F 100% 29.92 in 7.0 mi WNW 18.4 mph 25.3 mph N/A   Partly Cloudy
7:35 AM 32.0 °F 21.2 °F 32.0 °F 100% 29.93 in 6.0 mi WNW 16.1 mph 25.3 mph N/A   Partly Cloudy
7:55 AM 32.0 °F 22.1 °F 32.0 °F 100% 29.94 in 5.0 mi WNW 13.8 mph 19.6 mph N/A   Partly Cloudy
8:15 AM 33.8 °F 24.3 °F 30.2 °F 87% 29.94 in 8.0 mi WNW 13.8 mph 23.0 mph N/A   Clear
8:35 AM 33.8 °F 23.9 °F 32.0 °F 93% 29.95 in 8.0 mi WNW 15.0 mph 23.0 mph N/A   Partly Cloudy
8:55 AM 33.8 °F 24.3 °F 32.0 °F 93% 29.96 in 8.0 mi NW 13.8 mph - N/A   Partly Cloudy
9:15 AM 33.8 °F 24.8 °F 32.0 °F 93% 29.97 in 7.0 mi NW 12.7 mph - N/A   Scattered Clouds
9:35 AM 33.8 °F 24.8 °F 32.0 °F 93% 29.97 in 8.0 mi NW 12.7 mph 20.7 mph N/A   Partly Cloudy
9:55 AM 35.6 °F 26.6 °F 32.0 °F 87% 29.98 in 8.0 mi NW 13.8 mph - N/A   Partly Cloudy
10:15 AM 35.6 °F 26.6 °F 32.0 °F 87% 29.99 in 8.0 mi NW 13.8 mph - N/A   Clear
10:55 AM 37.4 °F 28.2 °F 30.2 °F 75% 30.00 in 9.0 mi NW 16.1 mph 21.9 mph N/A   Partly Cloudy
11:15 AM 39.2 °F 30.5 °F 30.2 °F 70% 30.00 in 3.0 mi NW 16.1 mph 23.0 mph N/A   Haze
11:35 AM 39.2 °F 31.6 °F 30.2 °F 70% 30.00 in 7.0 mi NW 12.7 mph 19.6 mph N/A   Clear
11:55 AM 41.0 °F 33.1 °F 30.2 °F 65% 30.00 in 8.0 mi NW 15.0 mph 20.7 mph N/A   Clear
12:15 PM 41.0 °F 33.1 °F 32.0 °F 70% 30.00 in 8.0 mi NW 15.0 mph 20.7 mph N/A   Clear
12:35 PM 41.0 °F 33.1 °F 28.4 °F 61% 29.99 in 9.0 mi NW 15.0 mph 23.0 mph N/A   Clear
12:55 PM 41.0 °F 32.8 °F 28.4 °F 61% 29.98 in 8.0 mi NW 16.1 mph 20.7 mph N/A   Unknown
1:15 PM 42.8 °F 34.8 °F 30.2 °F 61% 29.97 in 8.0 mi NW 17.3 mph 23.0 mph N/A   Clear
1:35 PM 42.8 °F 34.0 °F 28.4 °F 57% 29.97 in 9.0 mi NW 20.7 mph 27.6 mph N/A   Clear
1:55 PM 42.8 °F 34.8 °F 26.6 °F 53% 29.97 in 9.0 mi NW 17.3 mph 26.5 mph N/A   Clear
2:35 PM 42.8 °F 34.3 °F 26.6 °F 53% 29.97 in 9.0 mi NW 19.6 mph 26.5 mph N/A   Clear
2:55 PM 42.8 °F 34.3 °F 26.6 °F 53% 29.97 in 8.0 mi NW 19.6 mph 27.6 mph N/A   Clear
3:15 PM 42.8 °F 34.3 °F 26.6 °F 53% 29.96 in 9.0 mi NW 19.6 mph 26.5 mph N/A   Clear
3:35 PM 42.8 °F 34.0 °F 26.6 °F 53% 29.97 in 9.0 mi NW 20.7 mph 26.5 mph N/A   Clear
3:55 PM 41.0 °F 32.2 °F 26.6 °F 57% 29.97 in 9.0 mi NW 18.4 mph 27.6 mph N/A   Clear
4:55 PM 41.0 °F 33.1 °F 26.6 °F 57% 29.96 in 10.0 mi NW 15.0 mph 20.7 mph N/A   Clear
5:15 PM 39.2 °F 29.8 °F 28.4 °F 65% 29.96 in 9.0 mi NW 18.4 mph 23.0 mph N/A   Clear
5:35 PM 39.2 °F 30.8 °F 28.4 °F 65% 29.96 in 9.0 mi NW 15.0 mph 23.0 mph N/A   Clear
5:55 PM 37.4 °F 28.9 °F 26.6 °F 65% 29.96 in 9.0 mi WNW 13.8 mph 21.9 mph N/A   Clear
6:15 PM 37.4 °F 27.8 °F 26.6 °F 65% 29.97 in 10.0 mi WNW 17.3 mph 23.0 mph N/A   Clear
6:35 PM 37.4 °F 28.2 °F 26.6 °F 65% 29.97 in 10.0 mi WNW 16.1 mph 21.9 mph N/A   Clear
6:55 PM 37.4 °F 28.5 °F 26.6 °F 65% 29.97 in 10.0 mi WNW 15.0 mph - N/A   Clear
7:15 PM 37.4 °F 28.9 °F 28.4 °F 70% 29.98 in 10.0 mi NW 13.8 mph - N/A   Clear
7:35 PM 35.6 °F 26.2 °F 28.4 °F 75% 29.98 in 10.0 mi WNW 15.0 mph - N/A   Clear
7:55 PM 35.6 °F 26.6 °F 28.4 °F 75% 29.98 in 10.0 mi WNW 13.8 mph - N/A   Clear
8:15 PM 35.6 °F 27.1 °F 28.4 °F 75% 29.98 in 10.0 mi WNW 12.7 mph - N/A   Clear
8:35 PM 35.6 °F 27.5 °F 28.4 °F 75% 29.98 in 10.0 mi WNW 11.5 mph - N/A   Clear
8:55 PM 33.8 °F 25.8 °F 28.4 °F 81% 29.98 in 10.0 mi West 10.4 mph - N/A   Clear
9:15 PM 33.8 °F 26.4 °F 28.4 °F 81% 29.98 in 10.0 mi WNW 9.2 mph - N/A   Clear
9:35 PM 33.8 °F 26.4 °F 28.4 °F 81% 29.98 in 10.0 mi WNW 9.2 mph - N/A   Clear
9:55 PM 32.0 °F 23.6 °F 28.4 °F 87% 29.99 in 10.0 mi WNW 10.4 mph - N/A   Clear
10:15 PM 32.0 °F 23.6 °F 28.4 °F 87% 29.99 in 10.0 mi West 10.4 mph - N/A   Clear
10:35 PM 33.8 °F 25.3 °F 28.4 °F 81% 29.99 in 10.0 mi West 11.5 mph - N/A   Clear
10:55 PM 33.8 °F 26.4 °F 28.4 °F 81% 29.99 in 10.0 mi WNW 9.2 mph - N/A   Clear
11:15 PM 33.8 °F 27.0 °F 28.4 °F 81% 29.99 in 10.0 mi WNW 8.1 mph - N/A   Clear
11:35 PM 32.0 °F 25.6 °F 26.6 °F 80% 29.99 in 10.0 mi WNW 6.9 mph - N/A   Clear
11:55 PM 32.0 °F 26.4 °F 26.6 °F 80% 29.98 in 10.0 mi NW 5.8 mph - N/A   Clear